Regional Weather Roundup
Issued by NWS

Home | Current Version | Previous Version | Text Only | Print | Product List | Glossary Off
Versions: 1 2 3 4 5 6 7 8 9 10 11 12 13 14 15 16 17 18 19 20 21 22 23 24 25 26 27 28 29 30 31 32 33 34 35 36 37 38 39 40 41 42 43 44 45 46 47 48 49 50

000
ASUS43 KLSX 260110
RWRMO

WEATHER SUMMARY FOR MISSOURI
NATIONAL WEATHER SERVICE SPRINGFIELD MO
800 PM CDT SAT MAR 25 2017

NOTE: "FAIR" INDICATES FEW OR NO CLOUDS BELOW 12,000 FEET WITH NO
       SIGNIFICANT WEATHER AND/OR OBSTRUCTIONS TO VISIBILITY.
       CURRENT SKY AND/OR WEATHER CONDITIONS ARE NOT AVAILABLE FOR
       CHILLICOTHE AND FARMINGTON.

MOZ001>031-035>038-043-044-053-054-260200-
...NORTHERN AND WESTERN MISSOURI...

CITY           SKY/WX    TMP DP  RH WIND       PRES   REMARKS
KANSAS CTY INT CLOUDY    47  45  93 NW12      29.88R
KANSAS C DTWN  CLOUDY    51  45  79 NW12      29.87R
LEE`S SUMMIT   CLOUDY    51  47  86 NW9       29.86R
ST JOSEPH      CLOUDY    45  45 100 N9        29.90R FOG
CHILLICOTHE      N/A     49  47  93 N8        29.86S
KIRKSVILLE     CLOUDY    50  49  96 N9        29.83S FOG

$$
MOZ066>068-077>081-088>096-101>105-260200-
...SOUTHWEST MISSOURI...

CITY           SKY/WX    TMP DP  RH WIND       PRES   REMARKS
SPRINGFIELD    CLOUDY    48  44  86 W10       29.88S
JOPLIN         CLOUDY    48  44  86 W10       29.92R
BRANSON        CLOUDY    48  46  93 W7        29.90S

$$
MOZ032>034-039>042-045>050-055>058-069>072-260200-
...CENTRAL MISSOURI...

CITY           SKY/WX    TMP DP  RH WIND       PRES   REMARKS
COLUMBIA       CLOUDY    55  54  96 CALM      29.78S
JEFFERSON CITY PTCLDY    60  54  80 S7        29.79R
ROLLA          CLOUDY    52  51  97 SW18G25   29.81R
SEDALIA        RAIN      53  52  96 SW14G21   29.82S FOG
WHITEMAN AFB   LGT RAIN  54  54 100 NW7       29.82R
WARRENSBURG    DRIZZLE   52  50  93 CALM      29.84R
OSAGE BEACH    LGT RAIN N/A N/A N/A SW16      29.85R

$$
MOZ051-052-059>065-260200-
...EAST CENTRAL MISSOURI...

CITY           SKY/WX    TMP DP  RH WIND       PRES   REMARKS
ST LOUIS INTL  CLOUDY    58  54  86 SE10      29.82R
SPIRIT OF STL  CLOUDY    57  55  93 SE6       29.81R
ST CHARLES     LGT RAIN  57  56  96 SE8       29.80S

$$
MOZ072>076-082>087-097>100-106>115-260200-
...SOUTH CENTRAL AND SOUTHEAST MISSOURI...

CITY           SKY/WX    TMP DP  RH WIND       PRES   REMARKS
CAPE GIRARDEAU CLOUDY    61  56  83 S14       29.86R
FARMINGTON     PTCLDY    57  52  83 SW7       29.85R
POPLAR BLUFF   MOCLDY    62  53  72 SW7       29.86R
WEST PLAINS    CLOUDY    51  48  89 W10       29.90R

$$




USA.gov is the U.S. government's official web portal to all federal, state and local government web resources and services.